Location: Marcé
(47.5801°N, 0.3280°W)
Time: 19:52:30
(UTC+01:00)

Courier 1B - Pass Details

Date: 02 December 2021
Orbit: 962 x 1209 km, 28.3° (Epoch: 22 January)

Event Time Altitude Azimuth Distance (km) Brightness Sun altitude
Rises 18:14:40 0° 216° (SW) 3,981 11.8 -10.3°
Reaches altitude 10° 18:19:38 10° 189° (S) 2,961 10.4 -11.1°
Maximum altitude 18:22:14 12° 167° (SSE) 2,767 10.0 -11.5°
Drops below altitude 10° 18:24:48 10° 146° (SE) 2,894 9.8 -11.9°
Enters shadow 18:29:05 - 119° (ESE) 3,688 10.1 -12.6°
